Regional Weather Roundup
Issued by NWS

Home | Current Version | Previous Version | Text Only | Print | Product List | Glossary On
Versions: 1 2 3 4 5 6 7 8 9 10 11 12 13 14 15 16 17 18 19 20 21 22 23 24 25 26 27 28 29 30 31 32 33 34 35 36 37 38 39 40 41 42 43 44 45 46 47 48 49 50
000
ASUS42 KKEY 242310
RWRKEY

FLORIDA REGIONAL WEATHER ROUNDUP FOR THE FLORIDA KEYS
NATIONAL WEATHER SERVICE KEY WEST FLORIDA
700 PM EDT THU JUL 24 2014

...SOUTH FLORIDA AND THE KEYS...

CITY           SKY/WX    TMP DP  RH WIND       PRES   REMARKS
FORT MYERS     PTSUNNY   87  74  64 SW8       29.99S HX  95
SW REGIONAL AP MOSUNNY   85  74  69 SW6       30.00S HX  92
NAPLES         SUNNY     88  77  69 SW8       30.00S HX 100
MIAMI          MOSUNNY   86  73  65 SE3       30.02S HX  93
WEST KENDALL   MOSUNNY   89  73  59 SE5       30.01S HX  97
HOMESTEAD      MOSUNNY   82  75  78 S6        30.03R
MARATHON       MOSUNNY   89  74  60 E6        30.01S HX  98
BOCA CHICA NAS CLOUDY    87  75  67 SE7       30.01R HX  96
KEY WEST INTL  MOSUNNY   88  75  65 SE6       30.01R HX  97

...INTERNATIONAL WEATHER...

CITY           SKY/WX    TMP DP  RH WIND       PRES   REMARKS
NASSAU BAHAMAS MOSUNNY   81  75  83 SE9       30.03F
CANCUN MEXICO  MOSUNNY   88  77  70 E7        29.98R HX 100
COZUMEL MEXICO MOSUNNY   84  72  65 SE10      29.97R

ADJACENT COASTAL WATERS...

STATION/POSITION TIME  SKY/WX   TEMP    WIND        PRES    WAVE
                                AIR SEA DIR/SP/G            HT/PER
                 (UTC)          (F)     (DEG/KT/KT) (MB)    (FT/S)
PULASKI SHOAL LI 2300            87      60/  4/  4 1016.3R
SAND KEY         2300            85     100/  6/  7 1016.1R
SOMBRERO KEY     2300            87      80/  7/  7 1017.0R
LONG KEY         2300            87 90  110/  2/  3 1017.1R
MOLASSES REEF    2300            85 87  120/  3/  4 1016.8R
FOWEY ROCKS      2300            85 87  120/  6/  6 1017.2R
Buoy 42080       NOT AVBL

$$


USA.gov is the U.S. government's official web portal to all federal, state and local government web resources and services.